CST,Max TemperatureF,Mean TemperatureF,Min TemperatureF,Max Dew PointF,MeanDew PointF,Min DewpointF,Max Humidity, Mean Humidity, Min Humidity, Max Sea Level PressureIn, Mean Sea Level PressureIn, Min Sea Level PressureIn, Max VisibilityMiles, Mean VisibilityMiles, Min VisibilityMiles, Max Wind SpeedMPH, Mean Wind SpeedMPH, Max Gust SpeedMPH,PrecipitationIn, CloudCover, Events, WindDirDegrees
2013-2-1,6,-4,-13,2,-7,-19,85,72,56,30.38,30.18,30.02,10,6,1,12,6,,0.01,5,Snow,81
2013-2-2,10,6,1,7,1,-5,85,76,64,30.23,30.07,29.95,10,6,1,10,4,,0.01,7,Snow,60
2013-2-3,12,8,3,9,5,-2,85,76,61,30.13,30.03,29.94,10,5,2,13,7,18,0.02,7,Snow,318
2013-2-4,15,10,5,11,3,-4,87,71,47,30.11,29.97,29.76,10,6,1,12,6,,0.01,6,Snow,90
2013-2-5,28,18,5,23,17,2,92,78,58,30.12,29.83,29.64,10,7,1,15,9,22,0.02,5,Snow,266
2013-2-6,25,14,3,19,12,-1,88,79,72,30.14,30.03,29.90,10,6,0,10,5,,0.01,4,Snow,86
2013-2-7,28,26,23,22,21,19,88,80,69,30.27,30.11,29.97,10,6,2,15,9,21,0.00,8,,13
2013-2-8,26,22,19,20,16,12,81,74,68,30.40,30.32,30.22,10,10,6,16,7,,0.00,7,,115
2013-2-9,32,29,26,28,24,19,89,82,74,30.24,30.06,29.91,10,7,4,20,14,25,0.00,8,,160
2013-2-10,34,31,28,33,29,25,96,89,82,29.93,29.47,29.25,7,2,0,18,11,26,0.35,8,Fog-Rain-Snow,64
2013-2-11,30,24,15,28,18,10,93,77,66,30.07,29.77,29.32,10,8,2,24,15,32,0.00,7,Snow,298
2013-2-12,35,24,14,22,16,9,84,74,54,30.07,29.94,29.83,10,10,9,15,7,,0.00,2,,224
2013-2-13,37,26,16,32,24,13,93,82,62,29.82,29.66,29.54,10,7,0,8,5,,0.05,7,Fog-Rain-Snow,213
2013-2-14,33,24,14,32,21,3,93,76,47,30.21,29.84,29.55,10,7,1,18,10,23,0.01,4,Snow,335
2013-2-15,18,12,3,2,0,-2,80,66,50,30.34,30.31,30.22,10,10,10,14,8,20,0.00,1,,299
2013-2-16,18,10,1,6,1,-3,92,75,59,30.30,30.22,30.14,10,9,5,7,4,,0.00,3,,224
2013-2-17,32,21,10,22,13,2,80,70,63,30.14,29.93,29.63,10,10,10,22,11,30,0.00,1,,135
2013-2-18,34,20,6,30,14,0,86,75,67,29.84,29.66,29.52,10,7,2,21,11,31,0.00,7,Snow,276
2013-2-19,7,4,-4,0,-6,-11,73,65,55,30.42,30.14,29.88,10,9,5,21,15,30,0.00,3,,307
2013-2-20,18,5,-8,2,-5,-13,79,63,47,30.52,30.47,30.43,10,10,10,9,4,,0.00,0,,360
2013-2-21,21,14,6,11,5,0,77,63,55,30.49,30.33,30.11,10,10,9,16,7,21,0.00,1,Snow,67
2013-2-22,27,23,19,20,18,13,93,81,66,30.07,29.93,29.85,10,4,0,16,9,20,0.06,8,Fog-Snow,7
2013-2-23,25,20,14,19,16,12,92,83,74,29.99,29.90,29.84,10,8,5,12,5,,0.00,6,Snow,236
2013-2-24,33,20,6,19,10,1,100,79,56,30.13,30.06,29.94,10,6,0,7,2,,0.00,1,Fog,185
2013-2-25,33,27,19,23,20,17,89,72,60,30.14,30.09,30.04,10,8,3,7,1,,0.00,4,,182
2013-2-26,35,26,17,25,20,14,93,78,64,30.06,29.97,29.87,10,5,2,15,6,24,0.00,3,,12
2013-2-27,39,34,28,25,23,21,76,67,49,30.04,29.92,29.87,10,10,10,16,12,24,0.00,3,,6
2013-2-28,30,27,24,21,18,14,75,65,59,30.24,30.16,30.06,10,10,10,13,8,18,0.00,8,,13